Date String (YYYY-MM-DD hh:mm:ss) UTC,Instrument flags,Ambient pressure (hPa),Sample flow (lpm),Bypass flow (lpm),Sample temperature (°C),Ambient temperature (°C),ASC tube jacket temperature (°C),LED temperature (°C),Box temperature (°C),Sample RH (%),Span deviation,Mass concentration (μg/m³),Mass concentration (μg/m³),Mass concentration (μg/m³)
DateTimeUTC,F1_M11,P_M11,Q1_M11,Q2_M11,T1_M11,T2_M11,T3_M11,T4_M11,T5_M11,U1_M11,ZSPAN_M11,X0_M11,X2_M11,X1_M11
2022-04-08 09:00:00,,0833.8,5.00,0.00,21.0,22.3,00.0,29.9,23.0,08.3,0000.0,0009.89,0002.98,0001.36
2022-04-08 09:01:00,,0833.7,5.01,0.00,21.1,22.4,00.0,29.9,23.1,08.2,0000.0,0009.65,0002.85,0001.34
2022-04-08 09:02:00,,0833.7,5.00,0.00,21.1,22.0,00.0,29.9,23.0,08.3,0000.0,0009.37,0002.83,0001.34
2022-04-08 09:03:00,,0833.6,5.01,0.00,21.1,21.6,00.0,30.0,22.8,08.2,0000.0,0009.10,0002.72,0001.32
2022-04-08 09:04:00,,0833.6,5.00,0.00,21.1,21.2,00.0,30.0,22.7,08.3,0000.0,0009.04,0002.70,0001.33
2022-04-08 09:05:00,,0833.6,4.99,0.00,21.0,20.9,00.0,30.0,22.6,08.2,0000.0,0009.61,0002.75,0001.34
2022-04-08 09:06:00,,0833.6,4.99,0.00,21.0,20.7,00.0,30.0,22.6,08.2,0000.0,0009.91,0002.77,0001.34
2022-04-08 09:07:00,,0833.6,5.01,0.00,20.9,20.3,00.0,30.0,22.5,08.2,0000.0,0009.62,0002.71,0001.33
2022-04-08 09:08:00,,0833.6,5.01,0.00,20.9,20.1,00.0,29.9,22.4,08.3,0000.0,0009.62,0002.69,0001.33
2022-04-08 09:09:00,,0833.6,4.99,0.00,20.8,20.0,00.0,29.9,22.3,08.3,0000.0,0009.62,0002.71,0001.32
2022-04-08 09:10:00,,0833.6,5.01,0.00,20.7,19.9,00.0,29.9,22.2,08.4,0000.0,0008.44,0002.58,0001.32
2022-04-08 09:11:00,,0833.6,5.00,0.00,20.7,19.8,00.0,29.9,22.2,08.4,0000.0,0007.90,0002.55,0001.32
2022-04-08 09:12:00,,0833.7,5.00,0.00,20.6,19.7,00.0,29.9,22.1,08.4,0000.0,0007.99,0002.56,0001.31
2022-04-08 09:13:00,,0833.6,5.01,0.00,20.6,19.7,00.0,29.8,22.1,08.5,0000.0,0007.99,0002.53,0001.30
2022-04-08 09:14:00,,0833.6,5.00,0.00,20.6,19.7,00.0,29.8,22.0,08.5,0000.0,0008.10,0002.69,0001.30
2022-04-08 09:15:00,,0833.6,5.00,0.00,20.5,19.7,00.0,29.8,22.0,08.5,0000.0,0007.93,0002.70,0001.30
2022-04-08 09:16:00,,0833.7,4.99,0.00,20.6,20.4,00.0,29.8,22.2,08.5,0000.0,0008.12,0002.66,0001.29
2022-04-08 09:17:00,,0833.7,5.01,0.00,20.8,21.5,00.0,29.8,22.6,08.4,0000.0,0007.72,0002.61,0001.27
2022-04-08 09:18:00,,0833.7,5.00,0.00,21.0,22.5,00.0,29.9,23.0,08.4,0000.0,0008.28,0002.69,0001.27
2022-04-08 09:19:00,,0833.6,5.00,0.00,21.1,22.7,00.0,29.9,23.2,08.2,0000.0,0008.68,0002.67,0001.28
2022-04-08 09:20:00,,0833.7,5.01,0.00,21.2,22.2,00.0,30.0,23.1,08.2,0000.0,0008.70,0002.62,0001.27
2022-04-08 09:21:00,,0833.7,4.99,0.00,21.1,21.7,00.0,30.0,22.9,08.2,0000.0,0008.68,0002.59,0001.27
2022-04-08 09:22:00,,0833.6,5.00,0.00,21.1,21.3,00.0,30.0,22.8,08.2,0000.0,0009.16,0002.60,0001.25
2022-04-08 09:23:00,,0833.6,4.99,0.00,21.0,20.9,00.0,30.0,22.6,08.2,0000.0,0009.31,0002.66,0001.25
2022-04-08 09:24:00,,0833.6,5.01,0.00,21.0,20.6,00.0,30.0,22.5,08.3,0000.0,0009.44,0002.70,0001.26
2022-04-08 09:25:00,,0833.6,5.01,0.00,20.9,20.4,00.0,30.0,22.4,08.3,0000.0,0009.50,0002.64,0001.25
2022-04-08 09:26:00,,0833.6,4.98,0.00,20.8,20.1,00.0,29.9,22.3,08.3,0000.0,0009.43,0002.65,0001.26
2022-04-08 09:27:00,,0833.6,5.01,0.00,20.8,20.0,00.0,29.9,22.2,08.4,0000.0,0008.89,0002.66,0001.26
2022-04-08 09:28:00,,0833.6,4.99,0.00,20.7,19.8,00.0,29.9,22.2,08.4,0000.0,0008.99,0002.69,0001.27
2022-04-08 09:29:00,,0833.6,5.00,0.00,20.7,19.6,00.0,29.9,22.1,08.4,0000.0,0008.55,0002.65,0001.28
2022-04-08 09:30:00,,0833.6,5.00,0.00,20.6,19.5,00.0,29.8,22.0,08.5,0000.0,0008.17,0002.65,0001.28
2022-04-08 09:31:00,,0833.6,5.00,0.00,20.6,19.5,00.0,29.8,22.0,08.4,0000.0,0008.05,0002.70,0001.30
2022-04-08 09:32:00,,0833.6,5.01,0.00,20.5,19.5,00.0,29.8,22.0,08.5,0000.0,0008.24,0002.79,0001.31
2022-04-08 09:33:00,,0833.6,5.00,0.00,20.5,19.7,00.0,29.8,22.0,08.5,0000.0,0007.94,0002.79,0001.32
2022-04-08 09:34:00,,0833.6,5.00,0.00,20.6,20.8,00.0,29.8,22.3,08.4,0000.0,0007.82,0002.78,0001.33
2022-04-08 09:35:00,,0833.6,4.99,0.00,20.8,22.0,00.0,29.8,22.8,08.4,0000.0,0007.76,0002.78,0001.32
2022-04-08 09:36:00,,0833.6,5.00,0.00,21.0,22.4,00.0,29.9,23.0,08.3,0000.0,0007.47,0002.79,0001.33
2022-04-08 09:37:00,,0833.6,5.01,0.00,21.1,22.1,00.0,29.9,22.9,08.3,0000.0,0007.15,0002.81,0001.33
2022-04-08 09:38:00,,0833.5,5.01,0.00,21.1,21.7,00.0,29.9,22.8,08.3,0000.0,0007.02,0002.86,0001.34
2022-04-08 09:39:00,,0833.5,5.00,0.00,21.0,21.3,00.0,29.9,22.7,08.3,0000.0,0007.13,0002.94,0001.35
2022-04-08 09:40:00,,0833.5,5.00,0.00,21.0,20.9,00.0,29.9,22.7,08.3,0000.0,0007.27,0002.98,0001.35
2022-04-08 09:41:00,,0833.5,4.99,0.00,21.0,20.6,00.0,29.9,22.6,08.3,0000.0,0007.99,0003.02,0001.36
2022-04-08 09:42:00,,0833.5,5.01,0.00,21.0,20.4,00.0,29.9,22.5,08.2,0000.0,0008.23,0003.10,0001.36
2022-04-08 09:43:00,,0833.4,5.00,0.00,20.9,20.3,00.0,29.9,22.5,08.2,0000.0,0008.56,0003.08,0001.37
2022-04-08 09:44:00,,0833.4,4.98,0.00,20.9,20.2,00.0,29.9,22.5,08.3,0000.0,0008.42,0003.12,0001.38
2022-04-08 09:45:00,,0833.4,5.00,0.00,20.9,20.2,00.0,29.9,22.4,08.3,0000.0,0008.49,0003.12,0001.38
2022-04-08 09:46:00,,0833.5,5.01,0.00,20.8,20.1,00.0,29.9,22.4,08.2,0000.0,0008.52,0003.13,0001.39
2022-04-08 09:47:00,,0833.4,4.98,0.00,20.8,20.1,00.0,29.9,22.4,08.2,0000.0,0008.60,0003.14,0001.40
2022-04-08 09:48:00,,0833.4,5.00,0.00,20.8,20.1,00.0,29.9,22.4,08.3,0000.0,0009.10,0003.18,0001.42
2022-04-08 09:49:00,,0833.4,5.01,0.00,20.8,20.1,00.0,29.9,22.4,08.3,0000.0,0009.53,0003.18,0001.42
2022-04-08 09:50:00,,0833.5,4.98,0.00,20.8,20.1,00.0,29.9,22.4,08.3,0000.0,0009.97,0003.20,0001.42
2022-04-08 09:51:00,,0833.4,5.01,0.00,20.8,20.1,00.0,29.9,22.4,08.3,0000.0,0009.87,0003.20,0001.42
2022-04-08 09:52:00,,0833.5,4.99,0.00,20.8,20.1,00.0,29.9,22.4,08.3,0000.0,0009.46,0003.20,0001.42
2022-04-08 09:53:00,,0833.4,5.01,0.00,20.8,20.1,00.0,29.8,22.4,08.3,0000.0,0009.23,0003.19,0001.43
2022-04-08 09:54:00,,0833.4,5.00,0.00,20.8,20.1,00.0,29.8,22.5,08.3,0000.0,0009.10,0003.18,0001.44
2022-04-08 09:55:00,,0833.4,4.99,0.00,20.8,20.3,00.0,29.9,22.5,08.3,0000.0,0009.10,0003.17,0001.44
2022-04-08 09:56:00,,0833.4,5.01,0.00,21.0,21.4,00.0,29.9,22.8,08.3,0000.0,0009.57,0003.19,0001.46
2022-04-08 09:57:00,,0833.5,5.00,0.00,21.2,22.5,00.0,30.0,23.2,08.2,0000.0,0009.76,0003.23,0001.48
2022-04-08 09:58:00,,0833.4,5.00,0.00,21.3,22.7,00.0,30.0,23.4,08.1,0000.0,0009.88,0003.26,0001.49
2022-04-08 09:59:00,,0833.4,5.01,0.00,21.4,22.4,00.0,30.1,23.3,08.0,0000.0,0010.23,0003.23,0001.47
